Back to catalog

METEOR 2-11 DEB

AlivePO
NORAD 45517·DEBRIS·🇷🇺 Russia

Launched Jul 5, 1984 from Plesetsk Cosmodrome

Loading…

Next Passes (next 24 hours)

TLE

FreshSource: Space-Track

Epoch: Sep 14, 2026, 08:34 UTC

1 45517U 84072X   26257.35754924  .00001245  00000-0  78051-3 0  9990
2 45517  82.5186 279.2674 0007486  52.7053   6.2331 14.03825899605610

Track METEOR 2-11 DEB in real time with AllMySat

Download on the App Store